This is the latest recevied weather packets stored in our database for station/object SP9SOY-2. If no packets are shown the sender has not sent any weather packets the latest 10 day(s).
| Time | Temp. | Humidity | Pressure | Rain* | Wind** | Luminosity | Snow |
|---|---|---|---|---|---|---|---|
| 1777580833 | 10° C | 19% | - | - | - | 0 W/m² | - |
| 1777579037 | 10° C | 19% | - | - | - | 0 W/m² | - |
| 1777577235 | 10° C | 19% | - | - | - | 0 W/m² | - |
| 1777575430 | 10° C | 19% | - | - | - | 0 W/m² | - |
| 1777573632 | 10.56° C | 19% | - | - | - | 6 W/m² | - |
| 1777571831 | 10.56° C | 19% | - | - | - | 12 W/m² | - |
| 1777570028 | 10.56° C | 18% | - | - | - | 24 W/m² | - |
| 1777566431 | 11.67° C | 18% | - | - | - | 144 W/m² | - |
| 1777564635 | 11.67° C | 18% | - | - | - | 252 W/m² | - |
| 1777562833 | 12.22° C | 18% | - | - | - | 388 W/m² | - |
| 1777559235 | 12.22° C | 18% | - | - | - | 820 W/m² | - |
| 1777557434 | 11.67° C | 18% | - | - | - | 1116 W/m² | - |
| 1777555633 | 11.67° C | 18% | - | - | - | 967 W/m² | - |
| 1777553835 | 11.67° C | 18% | - | - | - | 818 W/m² | - |
| 1777552031 | 11.11° C | 18% | - | - | - | 894 W/m² | - |
| 1777550230 | 11.11° C | 18% | - | - | - | 970 W/m² | - |
| 1777546636 | 10.56° C | 19% | - | - | - | 1116 W/m² | - |
| 1777543034 | 10° C | 19% | - | - | - | 246 W/m² | - |
| 1777541237 | 10° C | 19% | - | - | - | 218 W/m² | - |
| 1777539431 | 9.44° C | 19% | - | - | - | 190 W/m² | - |
| 1777535836 | 8.89° C | 19% | - | - | - | 478 W/m² | - |
| 1777534031 | 7.78° C | 19% | - | - | - | 405 W/m² | - |
| 1777532235 | 7.22° C | 20% | - | - | - | 332 W/m² | - |
| 1777530435 | 6.67° C | 20% | - | - | - | 218 W/m² | - |
| 1777528631 | 5.56° C | 21% | - | - | - | 104 W/m² | - |
* Rain since midnight (hover to see other rain measurements)
** Current wind speed in m/s (hover to see current wind gust speed)